星链-31127 (STARLINK-31127 )

导读

STARLINK-31127是美国SpaceX公司星链(Starlink)星座中的卫星,于2024年1月14日发射,属于星链第二代星座(Gen2)部署阶段的组成部分。星链项目旨在通过近地轨道卫星星座,为全球偏远、无基础设施覆盖区域提供低延迟、高速宽带互联网服务,目前已在60多个国家和地区商用,覆盖住宅、海事、航空等多场景应用,截至2024年底注册用户已达500万,STARLINK-31127的发射进一步推进了星座组网进程。

基本信息
目录编号:
58765
目录名称:
STARLINK-31127
国际标识:
2024-011A
轨道中心:
EARTH
卫星名称:
星链-31127
卫星全名:
星链-31127 (STARLINK-31127 )
卫星状态:
在轨 (已飞行971 天)
发射日期:
2024-01-14 UTC
国别 :
美国 (US)
星等 :
--
该卫星已列入 空间交会检测服务 Space Conjunction Data Service (SCDS) ,当前飞行风险评估等级: 无高风险
轨道信息
数据来源 国际轨道数据 AOE轨道数据
星历时间 2026-09-11T13:06:48+0800
12小时前
查看轨道信息
2026-09-09T22:00:00+0800
2天前
查看轨道信息
半长轴 6840.875km 6840.882km
偏心率 0.0001599 0.0001194
轨道倾角 53.159° 53.157°
近地点辐角 83.850° 81.832°
升交点赤经 231.310° 238.931°
平近点角 276.268° 270.965°
近地点 461.644km 461.928km
远地点 463.832km 463.562km
周期 93.848分钟 93.849分钟
每日圈数 15.343885 15.34386
详细信息
固有亮度:
5
最大亮度:
0.3
卫星平台:
Starlink v2.0 mini
覆盖范围:
全球
运营商:
太空探索技术公司
运营商所在国:
美国
制造商(研发单位):
太空探索技术公司
制造商所在国:
美国
使用方式:
暂无
卫星简介
星链(Starlink)计划是由太空探索技术公司(SpaceX)提出的一个巨型低轨卫星互联网星座项目,计划在2019年至2024年间在太空搭建由约1.2万颗卫星组成的“星链”网络,其中1584颗将部署在地球上空550千米处的近地轨道,并从2020年开始工作。该卫星仍在工作。
2D轨道图
3D轨道图
轨道高度分析图
轨道倾角分析图
轨道综合分析图
查看轨道综合分析图
与全量物体交会距离演化趋势
与全量物体交会风险概率演化趋势